Date,TemperatureHighF,TemperatureAvgF,TemperatureLowF,DewpointHighF,DewpointAvgF,DewpointLowF,HumidityHigh,HumidityAvg,HumidityLow,PressureMaxIn,PressureMinIn,WindSpeedMaxMPH,WindSpeedAvgMPH,GustSpeedMaxMPH,PrecipitationSumIn
2013-1-1,34.0,25.0,10.0,30.0,19.9,7.0,92,81,63,30.13,30.01,10,4,0,0.00
2013-1-2,19.0,13.0,5.0,18.0,7.3,0.0,92,78,61,30.23,30.11,7,3,0,0.00
2013-1-3,30.0,20.8,5.0,23.0,10.6,0.0,92,65,41,30.25,30.15,16,9,24,0.00
2013-1-4,27.0,23.2,18.0,18.0,14.0,10.0,79,68,54,30.29,30.22,21,13,28,0.00
2013-1-5,37.0,27.9,18.0,28.0,20.7,14.0,92,74,55,30.31,30.11,18,8,27,0.00
2013-1-6,37.0,32.7,27.0,32.0,26.4,21.0,92,78,69,30.31,29.98,16,12,23,0.00
2013-1-7,34.0,25.5,14.0,25.0,19.8,10.0,92,79,64,30.45,30.21,15,6,18,0.00
2013-1-8,39.0,32.5,23.0,28.0,24.0,19.0,85,71,60,30.29,30.19,16,8,20,0.00
2013-1-9,43.0,39.1,34.0,36.0,32.1,27.0,86,75,65,30.51,30.15,16,11,23,0.00
2013-1-10,43.0,33.9,25.0,30.0,27.1,23.0,100,77,52,30.53,30.11,17,6,23,0.00
2013-1-11,57.0,50.7,39.0,52.0,45.0,30.0,93,81,65,30.11,29.85,18,12,27,0.00
2013-1-12,63.0,55.0,48.0,61.0,50.8,45.0,93,85,71,30.01,29.75,21,8,27,0.00
2013-1-13,64.0,63.3,63.0,61.0,60.5,59.0,93,90,88,29.75,29.68,22,18,30,0.00
2013-1-14,63.0,26.2,21.0,59.0,19.9,16.0,88,76,68,30.45,29.68,18,6,24,0.00
2013-1-15,32.0,27.1,21.0,23.0,19.6,18.0,85,73,59,30.40,30.10,12,7,0,0.00
2013-1-16,34.0,30.8,28.0,27.0,23.4,21.0,92,74,59,30.10,29.93,16,8,20,0.00
2013-1-17,39.0,32.8,23.0,28.0,23.0,10.0,86,67,44,30.37,30.04,16,8,23,0.00
2013-1-18,37.0,28.9,19.0,21.0,15.9,10.0,85,59,40,30.48,30.10,27,12,41,0.00
2013-1-19,52.0,43.6,37.0,30.0,22.5,18.0,56,43,32,30.10,29.81,24,18,36,0.00
2013-1-20,45.0,28.9,21.0,32.0,12.8,7.0,67,50,31,30.21,29.80,28,13,38,0.00
2013-1-21,21.0,17.0,10.0,12.0,6.3,0.0,92,63,41,30.18,30.05,24,13,31,0.00
2013-1-22,14.0,10.4,5.0,9.0,5.8,3.0,100,81,66,30.33,30.18,18,11,28,0.00
2013-1-23,21.0,15.1,7.0,14.0,5.0,0.0,85,65,41,30.30,30.07,15,9,17,0.00
2013-1-24,21.0,16.5,10.0,12.0,4.9,0.0,78,60,38,30.57,30.08,17,7,25,0.00
2013-1-25,25.0,20.8,18.0,19.0,13.6,5.0,85,73,52,30.45,30.00,14,8,0,0.00
2013-1-26,27.0,23.5,7.0,19.0,16.7,3.0,92,76,68,30.45,30.06,12,5,0,0.00
2013-1-27,34.0,25.1,10.0,32.0,17.2,7.0,93,72,59,30.45,30.11,15,7,20,0.00
2013-1-28,52.0,45.4,34.0,48.0,42.7,32.0,100,90,81,30.11,29.95,22,14,28,0.00
2013-1-29,63.0,56.2,48.0,55.0,51.6,46.0,100,85,72,30.01,29.53,28,16,33,0.00
2013-1-30,64.0,51.6,32.0,55.0,46.1,28.0,93,82,72,29.53,29.23,30,17,44,0.00
2013-1-31,32.0,23.9,16.0,30.0,13.7,3.0,92,65,49,29.98,29.45,30,18,39,0.00